GEFSMW_con_cape1000_144.txt.gz
Probability
81 81 81 81 84 84 87 81 77 87 81 77 71 74 74 81 81 77 81 77 81 81 77 68 61 61 55 55 55 55 52 42 32 19 26 16 19 32 29 16 19 19 19
77 74 74 77 81 81 84 81 84 84 74 77 71 74 77 84 81 81 77 74 71 77 58 77 61 58 48 48 48 55 48 29 39 26 23 10 10 19 0 16 19 10 23
71 77 68 71 65 81 74 71 81 77 74 77 74 71 68 71 74 77 77 77 71 71 74 65 55 55 48 42 52 48 39 48 32 32 29 16 16 16 13 3 16 26 26
71 74 74 61 61 65 68 71 77 74 74 77 71 61 55 58 68 74 74 77 71 74 68 61 61 61 48 58 48 42 29 32 29 16 32 35 29 13 16 10 13 19 23
58 68 65 65 58 55 55 65 71 68 74 68 74 71 61 71 77 74 74 77 74 71 71 65 61 58 52 52 39 52 32 42 35 29 19 13 16 6 6 3 6 6 10
52 61 55 61 45 48 52 55 68 65 61 61 61 68 71 65 74 74 71 77 77 77 65 68 61 58 55 45 39 35 32 48 35 32 23 13 10 6 10 6 6 0 6
52 52 48 52 52 48 48 52 58 58 58 61 52 61 61 71 74 74 81 74 58 65 65 55 58 58 58 45 39 29 23 29 29 23 19 19 16 13 13 6 3 6 6
55 52 45 52 52 48 48 48 45 48 45 55 55 55 55 55 68 74 68 61 52 61 65 61 55 48 39 32 32 23 26 32 23 13 16 16 13 16 13 10 6 0 0
52 42 42 45 45 48 45 39 45 42 48 48 52 52 52 45 58 71 74 58 61 52 48 45 45 42 45 32 29 19 23 29 19 16 19 16 16 16 10 10 10 6 0
45 42 48 48 48 45 48 45 45 48 48 52 48 45 48 42 61 65 65 65 61 52 45 42 42 45 35 32 29 39 32 26 26 26 16 13 13 13 13 13 10 10 0
48 45 48 45 48 45 45 45 45 45 42 45 48 52 48 52 58 68 65 65 65 58 42 39 48 42 45 39 42 39 29 26 23 19 13 16 13 16 16 16 13 10 10
45 42 45 45 45 42 42 42 42 42 42 45 52 52 58 55 58 61 68 65 61 61 48 39 48 42 42 45 48 32 16 19 23 23 16 16 13 16 10 13 16 13 13
52 61 61 58 55 48 52 42 39 48 52 42 45 55 58 58 61 65 68 61 55 58 52 52 45 45 42 42 39 29 26 26 19 23 19 19 16 16 13 10 13 10 3
74 74 81 74 61 61 55 48 48 45 45 48 45 61 61 61 68 68 65 65 61 61 61 58 52 42 39 39 42 35 26 29 26 26 29 23 19 16 16 16 16 13 13
77 81 81 90 81 71 61 61 55 52 58 58 58 71 58 65 65 71 77 71 71 61 65 58 55 48 42 35 35 32 23 35 32 26 29 26 13 13 13 3 16 6 6
68 77 77 81 77 77 71 61 61 65 68 58 55 68 68 68 68 74 77 81 74 74 71 65 58 45 23 0 0 26 35 35 32 29 26 19 6 0 0 0 0 0 0
55 65 71 77 77 77 84 87 81 74 74 77 68 71 71 74 74 71 74 81 81 74 71 65 55 48 26 0 0 0 19 35 35 39 45 10 3 0 3 0 0 0 0
61 61 65 71 74 74 84 81 77 81 81 81 77 74 65 71 77 74 77 77 77 74 68 61 55 48 32 0 0 0 0 16 29 42 45 45 23 10 6 10 3 3 3
65 74 61 65 68 74 74 74 74 74 74 77 74 74 71 71 71 74 77 77 74 74 74 61 55 45 39 0 0 0 3 6 6 19 23 42 29 10 0 3 6 3 0
42 55 55 65 68 71 71 74 71 74 74 74 74 74 74 68 65 68 68 74 71 71 68 48 48 48 42 10 0 0 0 0 3 13 10 0 3 0 0 0 3 6 6
35 42 52 52 55 61 71 65 68 65 68 71 68 65 61 61 65 68 61 61 55 52 52 45 42 42 35 19 0 0 0 0 3 6 6 3 0 0 0 0 0 0 0
29 32 45 42 42 45 48 48 48 58 65 55 52 52 52 48 45 61 58 48 42 39 35 39 39 35 32 16 0 0 0 0 0 0 6 0 0 0 0 0 0 0 0
29 29 29 29 29 29 39 39 39 42 39 39 39 42 39 35 32 35 32 29 29 32 32 29 29 29 23 16 0 0 0 0 0 0 0 0 0 0 0 0 0 0 0
19 19 19 19 19 23 26 26 32 35 39 35 32 29 26 19 26 23 19 26 26 16 23 26 26 23 16 16 6 0 0 0 0 0 0 0 0 0 0 0 0 0 0
10 6 6 10 10 13 16 19 26 26 23 23 19 16 16 16 19 16 10 13 13 10 13 16 13 6 6 3 0 0 0 0 0 0 0 0 0 0 0 0 0 0 0
6 6 6 6 6 6 10 13 13 16 19 19 19 19 19 19 13 6 6 0 0 0 0 0 0 0 0 0 0 0 0 0 0 0 0 0 0 0 0 0 0 0 0

GEFSMW_con_cape1000_150.txt.gz
Probability
68 71 81 74 71 65 65 52 65 42 35 39 39 45 39 29 23 26 26 26 26 23 13 10 0 0 0 0 0 0 0 0 0 0 0 0 0 0 0 3 3 3 3
71 71 77 68 71 68 61 58 55 48 35 29 32 35 32 23 16 23 19 26 19 19 10 3 0 0 0 0 0 0 0 0 0 0 0 0 0 0 0 0 0 3 3
65 71 68 61 61 55 55 55 55 55 39 32 29 23 13 16 16 19 19 19 16 16 0 0 0 0 0 0 0 0 0 0 0 0 0 0 0 0 0 0 0 0 0
55 58 58 61 58 55 52 52 58 52 39 35 26 19 23 16 19 19 19 16 13 10 3 0 0 0 0 0 0 0 0 0 0 0 0 0 0 0 0 0 0 0 0
52 45 55 58 52 52 55 55 52 45 42 29 32 19 13 13 6 10 13 6 10 10 6 3 0 0 0 0 0 0 0 0 0 0 0 0 0 0 0 0 0 0 0
48 39 42 42 42 48 48 45 42 32 32 26 23 16 13 13 6 10 10 3 3 6 6 3 0 0 0 0 0 0 0 0 0 0 0 0 0 0 0 0 0 0 0
39 35 32 32 35 42 42 39 35 32 29 26 23 13 6 10 13 6 3 3 3 3 3 3 3 0 0 0 0 0 0 0 0 0 0 0 0 0 0 0 0 0 0
29 29 35 32 32 35 39 29 29 29 26 26 19 13 10 3 3 0 0 0 0 3 0 0 3 0 0 0 0 0 0 0 0 0 0 0 0 0 0 0 0 0 0
26 29 26 29 26 29 32 29 26 23 19 23 13 6 6 3 3 0 0 0 0 0 0 0 3 3 0 0 0 0 0 0 0 0 0 0 0 0 0 0 0 0 0
26 23 19 26 23 29 26 26 26 19 13 10 6 3 3 3 0 0 0 0 0 0 0 0 3 0 0 0 0 0 0 0 0 0 0 0 0 0 0 0 0 0 0
19 26 26 23 23 26 19 19 16 16 10 13 6 6 0 3 0 0 0 0 0 0 0 0 3 0 0 0 0 0 0 0 0 0 0 0 0 0 0 0 0 0 0
13 19 23 16 16 16 19 16 13 13 13 16 10 3 0 0 0 0 0 0 0 0 0 3 0 0 0 0 0 0 0 0 0 0 0 0 0 0 0 0 0 0 0
13 10 16 16 16 16 16 19 19 16 6 10 6 10 10 3 0 0 0 0 0 0 0 0 0 0 0 0 0 0 0 0 0 0 0 0 0 0 0 0 0 0 0
10 13 13 16 16 16 16 19 23 19 16 10 10 10 10 10 3 0 0 0 0 0 0 0 0 0 0 0 0 0 0 0 0 0 0 0 0 0 0 0 0 0 0
6 13 10 10 10 16 13 16 16 13 10 13 13 10 10 6 6 0 0 0 0 0 0 0 0 0 0 0 0 0 0 0 0 0 0 0 0 0 0 0 0 0 0
13 6 10 10 16 19 16 16 16 10 10 13 13 10 13 6 3 0 0 0 0 0 0 0 0 0 0 0 0 0 0 0 0 0 0 0 0 0 0 0 0 0 0
26 10 6 6 6 13 16 19 16 10 10 10 10 10 13 10 6 6 0 0 0 0 0 0 0 0 0 0 0 0 0 0 0 0 0 0 0 0 0 0 0 0 0
29 16 13 13 13 6 10 19 19 13 10 10 10 13 10 6 6 6 3 0 0 0 0 0 0 0 0 0 0 0 0 0 0 0 0 0 0 0 0 0 0 0 0
16 16 16 10 10 6 6 13 19 16 13 10 10 10 13 6 3 3 6 3 0 3 3 3 3 0 0 0 0 0 0 0 0 0 0 0 0 0 0 0 0 0 0
13 13 19 16 13 10 10 13 16 13 10 6 6 6 10 3 6 6 6 3 3 3 3 3 3 0 0 0 0 0 0 0 0 0 0 0 0 0 0 0 0 0 0
6 13 13 19 13 13 10 13 13 16 13 10 3 3 6 6 3 3 3 3 3 3 0 0 0 0 0 0 0 0 0 0 0 0 0 0 0 0 0 0 0 0 0
3 6 13 16 13 6 10 10 6 6 6 10 6 6 6 3 3 3 3 3 3 3 3 0 0 0 0 0 0 0 0 0 0 0 0 0 0 0 0 0 0 0 0
3 3 3 0 3 6 6 3 6 0 6 10 6 6 6 3 3 3 3 3 3 3 3 3 3 0 0 0 0 0 0 0 0 0 0 0 0 0 0 0 0 0 0
0 0 0 0 0 0 0 0 3 3 0 6 6 6 3 3 3 3 6 3 3 3 3 3 3 0 0 0 0 0 0 0 0 0 0 0 0 0 0 0 0 0 0
0 0 0 0 0 0 0 0 0 0 3 3 6 6 6 3 3 3 3 3 3 3 3 3 3 3 0 0 0 0 0 0 0 0 0 0 0 0 0 0 0 0 0
0 0 0 0 0 0 0 0 0 0 0 3 6 6 6 6 3 3 0 0 0 0 0 0 0 0 0 0 0 0 0 0 0 0 0 0 0 0 0 0 0 0 0

GEFSMW_con_cape1000_156.txt.gz
Probability
48 48 61 65 71 48 48 42 42 35 35 29 19 19 16 16 16 16 16 19 19 13 10 6 0 0 0 0 0 0 0 0 0 0 0 0 0 0 0 0 3 10 13
52 45 48 71 65 52 39 45 35 26 23 29 19 16 13 13 16 19 16 16 13 13 10 3 3 0 0 0 0 0 0 0 0 0 0 0 0 0 0 0 0 3 3
39 55 52 55 52 55 45 45 32 23 19 16 13 16 13 6 16 10 10 13 10 10 3 3 3 0 0 0 0 0 0 0 0 0 0 0 0 0 0 0 0 3 3
35 39 45 45 42 48 39 39 26 19 16 16 16 13 6 10 10 10 10 10 10 10 6 3 3 0 0 0 0 0 0 0 0 0 0 0 0 0 0 0 0 0 0
26 35 42 42 42 42 39 26 26 23 23 23 19 16 10 10 10 10 10 10 6 3 6 3 3 0 0 0 0 0 0 0 0 0 0 0 0 0 0 0 0 0 0
29 39 45 48 45 32 26 32 26 23 19 23 23 19 13 6 6 6 6 6 3 3 6 3 3 0 0 0 0 0 0 0 0 0 0 0 0 0 0 0 0 0 0
29 35 39 39 26 32 26 29 26 19 16 19 19 13 13 3 6 6 6 6 3 3 3 3 3 0 0 0 0 0 0 0 0 0 0 0 0 0 0 0 0 0 0
26 32 29 29 23 23 19 23 23 16 13 16 16 19 6 3 0 3 6 6 6 3 3 3 3 0 0 0 0 0 0 0 0 0 0 0 0 0 0 0 0 0 0
16 26 29 16 13 16 19 16 16 13 16 10 16 16 13 3 0 0 3 3 3 3 3 3 0 0 0 0 0 0 0 0 0 0 0 0 0 0 0 0 0 0 0
10 13 16 10 13 16 16 16 16 13 6 10 10 13 6 3 0 0 0 0 0 0 0 0 0 0 0 0 0 0 0 0 0 0 0 0 0 0 0 0 0 0 0
13 10 10 10 13 16 13 13 13 10 3 3 3 6 6 6 6 0 0 0 0 0 0 0 0 0 0 0 0 0 0 0 0 0 0 0 0 0 0 0 0 0 0
10 13 6 10 10 13 13 13 6 6 6 3 0 3 3 3 3 0 0 0 0 0 0 0 0 0 0 0 0 0 0 0 0 0 0 0 0 0 0 0 0 0 0
3 6 10 10 10 10 10 10 10 10 0 0 0 3 3 0 3 0 0 0 0 0 0 0 0 0 0 0 0 0 0 0 0 0 0 0 0 0 0 0 0 0 0
3 3 3 6 13 6 6 6 10 6 0 0 3 3 0 0 0 0 0 0 0 0 0 0 0 0 0 0 0 0 0 0 0 0 0 0 0 0 0 0 0 0 0
3 3 3 3 3 6 10 10 10 3 3 6 6 3 0 0 0 0 0 0 0 0 0 0 0 0 0 0 0 0 0 0 0 0 0 0 0 0 0 0 0 0 0
3 6 6 3 0 3 6 6 3 6 6 6 6 6 3 0 0 0 0 0 0 0 0 0 0 0 0 0 0 0 0 0 0 0 0 0 0 0 0 0 0 0 0
0 0 6 3 0 3 6 3 0 0 3 6 6 6 3 3 0 0 0 0 0 0 0 0 0 0 0 0 0 0 0 0 0 0 0 0 0 0 0 0 0 0 0
0 0 0 0 3 3 0 3 0 0 3 3 3 3 0 0 0 0 0 0 0 0 0 0 0 0 0 0 0 0 0 0 0 0 0 0 0 0 0 0 0 0 0
0 3 3 0 3 3 3 0 0 0 0 0 0 0 3 3 0 0 0 0 0 0 0 0 0 0 0 0 0 0 0 0 0 0 0 0 0 0 0 0 0 0 0
0 0 0 3 3 3 6 3 3 0 0 3 3 0 3 3 0 0 0 0 0 0 0 0 0 0 0 0 0 0 0 0 0 0 0 0 0 0 0 0 0 0 0
0 0 0 3 3 3 0 0 0 0 3 3 3 3 3 3 3 3 0 0 0 0 0 0 0 0 0 0 0 0 0 0 0 0 0 0 0 0 0 0 0 0 0
0 0 0 0 3 0 0 0 0 0 0 3 3 3 3 3 3 3 3 0 0 0 0 0 0 0 0 0 0 0 0 0 0 0 0 0 0 0 0 0 0 0 0
0 0 0 0 0 0 0 0 0 0 0 0 0 3 3 3 3 3 3 3 3 0 0 0 0 0 0 0 0 0 0 0 0 0 0 0 0 0 0 0 0 0 0
0 0 0 0 0 0 0 0 0 0 0 0 0 0 3 3 3 3 3 3 3 3 3 3 0 0 0 0 0 0 0 0 0 0 0 0 0 0 0 0 0 0 0
0 0 0 0 0 0 0 0 0 0 0 0 0 0 3 3 3 3 3 3 3 3 3 3 3 0 0 0 0 0 0 0 0 0 0 0 0 0 0 0 0 0 0
0 0 0 0 0 0 0 0 0 0 0 0 0 0 0 3 6 3 3 0 0 0 0 0 0 0 0 0 0 0 0 0 0 0 0 0 0 0 0 0 0 0 0

GEFSMW_con_cape1000_162.txt.gz
Probability
97 97 97 97 97 100 100 100 100 97 97 94 90 94 90 87 77 77 81 84 81 81 81 55 81 71 55 61 48 48 42 45 45 32 26 35 10 19 26 19 16 13 6
94 94 94 97 97 97 100 100 100 100 97 94 87 94 90 90 77 74 81 77 77 77 71 74 68 68 71 61 61 58 52 42 39 29 26 23 23 23 6 10 13 13 23
90 94 94 94 94 94 94 90 97 97 97 94 90 87 90 77 71 71 77 77 77 77 77 74 68 68 58 68 74 61 48 48 29 29 29 19 13 3 0 10 10 16 23
84 90 94 90 87 87 90 90 90 94 90 87 81 74 81 68 68 77 81 81 77 74 65 74 68 71 61 71 52 35 45 52 32 32 29 16 6 0 6 0 6 23 32
74 84 87 90 87 87 84 90 87 90 87 77 81 84 84 77 74 81 81 77 71 74 68 71 71 71 65 58 58 55 45 39 32 26 29 26 35 3 0 6 3 3 6
65 81 84 84 84 77 84 87 87 84 87 81 81 77 84 81 71 68 74 65 65 74 71 68 71 71 65 68 58 58 55 48 48 48 39 29 23 16 13 10 16 10 3
68 71 71 81 81 81 84 84 87 77 81 84 77 81 84 84 74 65 68 52 52 55 65 55 65 68 68 68 61 61 55 58 61 58 48 29 26 26 13 10 13 10 3
65 65 71 68 74 74 84 74 71 71 81 74 74 71 81 77 68 68 52 52 35 42 52 55 58 55 65 45 68 58 55 61 61 39 48 48 16 10 10 6 6 16 10
52 61 65 65 65 68 71 74 74 74 77 74 71 68 74 81 68 65 58 48 58 35 39 52 52 52 52 48 61 55 55 52 39 39 39 32 13 10 6 10 10 10 6
55 61 58 61 65 65 77 71 65 71 68 68 61 52 65 71 68 61 58 58 52 48 39 39 48 52 48 52 58 45 45 45 48 52 32 32 13 19 16 10 13 13 10
58 58 58 65 61 55 48 55 65 65 74 65 52 52 48 58 55 55 55 52 55 48 35 32 39 48 48 48 52 39 35 35 39 32 23 26 29 23 23 16 10 10 10
58 58 55 61 55 52 55 48 48 48 58 48 52 55 58 52 52 48 45 45 52 42 39 35 45 35 42 48 48 42 29 29 29 26 29 26 26 26 16 19 3 6 13
55 55 65 58 55 52 52 55 55 48 48 48 45 52 52 42 42 39 42 42 42 42 39 39 35 32 32 39 39 42 29 26 23 26 26 23 19 23 23 16 10 3 6
58 61 65 61 52 52 48 45 48 45 48 39 39 42 45 42 39 32 32 35 42 42 35 35 32 35 35 39 45 35 35 26 23 26 26 23 16 19 16 13 16 13 13
55 48 48 55 48 45 48 39 45 45 39 42 48 48 48 42 39 29 29 29 26 23 39 35 35 26 26 19 39 32 29 29 26 23 19 16 10 6 6 3 13 16 16
42 35 39 42 42 42 39 45 39 39 35 39 42 45 42 39 35 32 29 29 32 23 29 32 26 29 6 0 0 13 29 29 26 23 19 10 6 0 0 0 0 0 3
48 48 39 35 42 45 42 45 42 42 35 32 29 32 35 32 32 29 29 26 32 35 42 32 23 26 16 0 0 0 13 23 19 19 23 10 0 3 6 0 0 0 0
42 48 48 42 45 48 48 45 48 45 35 32 29 23 23 23 26 26 29 29 32 39 39 32 26 32 13 0 0 0 0 16 16 16 19 19 19 0 3 3 0 3 3
35 29 32 32 42 48 48 52 48 42 42 39 29 26 19 19 23 29 26 32 29 32 32 26 19 26 10 0 0 0 6 16 16 16 10 6 13 3 0 0 3 6 3
29 26 23 32 39 45 55 45 52 42 45 32 32 29 32 32 29 26 32 35 29 29 29 23 19 16 16 0 0 0 3 19 16 19 13 3 0 0 0 3 3 3 6
23 23 23 26 35 42 45 39 32 29 29 26 29 32 26 29 29 29 32 32 29 26 19 19 16 13 10 3 0 0 10 16 16 6 10 10 0 0 0 0 3 0 0
16 16 19 26 26 35 32 32 23 26 23 19 23 23 19 10 10 19 26 29 32 26 19 10 10 10 10 6 0 0 0 0 10 6 6 6 0 0 0 0 0 0 0
16 16 16 13 23 26 26 19 26 26 23 19 19 16 16 13 13 13 16 16 10 10 13 10 10 10 10 6 0 0 0 0 0 3 0 0 0 0 0 0 0 0 0
13 13 10 13 16 13 16 13 13 16 13 16 16 16 16 13 13 19 10 6 3 6 6 10 10 10 6 6 6 3 0 0 0 0 0 0 0 0 0 0 0 0 0
13 10 10 6 3 3 3 6 13 13 13 6 10 10 10 10 6 6 3 6 6 3 6 13 10 10 10 3 3 6 6 3 0 0 0 0 0 0 0 0 0 0 0
3 3 3 3 3 3 3 3 3 3 3 3 6 6 10 6 6 3 3 3 0 0 0 0 0 3 0 0 0 0 0 0 0 0 0 0 0 0 0 0 0 0 0

GEFSMW_con_cape1000_168.txt.gz
Probability
97 100 100 97 97 97 97 97 100 100 97 97 97 90 87 87 84 84 90 84 87 87 87 81 84 87 81 81 77 77 77 68 71 58 65 52 55 61 65 68 61 42 39
97 97 97 97 97 97 97 97 97 100 100 97 97 97 90 90 84 87 84 84 84 84 77 84 84 84 90 77 71 74 74 71 58 65 45 23 35 48 19 55 61 42 45
97 100 97 97 97 97 97 97 97 100 100 100 97 100 97 94 87 87 84 84 84 84 84 84 81 84 84 77 71 71 68 61 65 65 52 26 16 19 39 42 35 48 48
94 100 97 97 97 97 97 97 97 100 100 100 97 97 87 87 87 87 81 81 84 84 87 84 74 81 74 81 74 68 65 71 55 58 71 71 58 19 29 39 35 48 52
87 100 94 97 94 94 94 97 97 100 100 100 97 97 100 97 94 90 90 81 81 77 74 74 77 81 84 81 74 81 71 74 58 52 55 52 65 52 35 13 13 26 35
81 97 94 94 94 94 90 94 97 100 100 97 97 97 94 97 94 90 77 77 81 77 74 74 81 81 74 81 71 68 74 71 68 61 61 52 35 32 35 19 23 19 26
81 97 94 90 90 87 90 90 97 97 100 97 97 97 90 87 94 87 74 74 71 74 68 71 81 74 74 74 71 71 71 68 71 58 58 55 52 39 35 19 19 26 23
68 81 87 81 77 87 90 87 90 90 94 94 90 90 87 84 87 90 71 74 71 71 74 77 74 77 77 71 74 71 71 68 68 48 58 61 45 39 42 35 23 6 6
71 71 81 77 84 87 84 84 87 90 87 90 87 84 84 81 81 87 84 77 71 68 68 68 68 74 71 74 68 68 68 71 58 61 68 58 42 39 42 48 45 23 10
61 68 74 81 84 87 84 84 87 87 84 84 77 77 74 77 84 81 74 74 65 58 61 65 58 68 61 61 65 65 65 61 61 68 61 65 48 42 52 35 35 39 19
65 71 74 74 77 71 77 81 90 87 84 84 81 84 77 74 74 81 81 74 77 68 61 61 55 58 52 58 58 65 58 55 55 52 55 55 48 48 42 42 32 42 35
71 74 74 81 74 77 77 81 77 81 74 81 81 81 77 74 71 71 77 74 71 61 61 58 52 48 39 42 42 45 45 42 42 35 45 42 26 42 35 42 23 19 39
74 74 84 74 77 74 81 81 77 74 74 81 77 77 74 71 71 68 71 65 61 61 52 45 35 35 35 39 39 42 42 39 35 26 35 35 32 32 32 39 26 19 6
87 87 87 84 81 81 84 77 68 71 71 74 74 74 71 71 65 65 65 65 55 55 48 45 39 23 23 23 32 32 32 26 32 29 35 29 26 26 32 23 23 16 13
74 84 87 81 81 71 74 65 61 74 65 71 74 71 68 61 61 55 52 52 52 39 35 32 32 23 23 13 13 29 19 29 29 29 29 19 19 16 3 3 19 16 16
77 84 71 71 77 71 61 65 58 61 61 61 65 68 61 61 55 52 48 52 45 42 45 29 23 13 10 3 0 6 16 26 26 19 26 23 10 0 0 0 0 0 3
71 74 71 71 71 68 74 61 61 58 48 45 45 52 55 52 48 35 39 35 35 45 39 26 16 23 10 3 0 0 6 19 23 26 26 10 0 0 3 0 0 0 0
61 65 65 65 71 61 68 61 61 55 52 45 39 39 45 48 45 42 39 42 39 32 32 29 23 23 6 0 0 0 0 10 13 13 13 16 13 3 3 3 0 3 3
68 65 55 48 48 52 55 61 58 52 52 45 42 39 35 42 35 35 35 32 32 29 26 29 26 19 6 0 0 0 3 10 6 10 3 3 3 3 0 3 3 3 3
55 45 42 42 45 45 52 55 55 48 35 35 35 35 42 39 39 35 35 29 29 26 13 10 10 16 16 0 0 0 0 3 3 6 3 0 0 0 0 0 3 3 3
39 35 35 39 42 42 45 39 39 39 32 35 32 32 35 32 39 39 32 19 16 10 13 13 16 16 16 0 0 0 0 3 3 3 3 3 0 0 0 0 0 0 0
32 29 32 35 39 39 39 35 29 35 39 26 19 19 19 19 23 23 29 23 13 10 10 10 13 10 6 6 0 0 0 0 3 6 3 0 0 0 0 0 0 0 0
26 26 29 32 32 32 32 26 23 19 16 16 19 13 13 13 13 16 19 16 13 10 10 10 10 10 6 6 0 0 0 0 0 0 0 0 0 0 0 0 0 0 0
26 19 26 23 26 26 19 23 23 19 16 16 16 16 6 10 3 3 3 3 3 3 6 10 10 10 6 6 6 0 0 0 0 0 0 0 0 0 0 0 0 0 0
19 19 19 23 16 13 13 13 16 16 16 16 16 13 10 6 6 3 3 3 3 3 3 3 6 6 6 3 3 6 6 3 0 0 0 0 0 0 0 0 0 0 0
16 23 19 13 10 10 10 10 16 10 16 10 10 10 10 6 3 3 3 0 0 0 0 0 0 3 0 0 0 0 0 0 0 0 3 3 0 0 0 0 0 0 0

GEFSMW_con_cape1000_174.txt.gz
Probability
84 74 84 81 87 84 77 87 90 84 87 81 68 55 55 52 52 45 45 48 42 42 23 23 10 10 6 6 3 0 0 0 0 0 0 0 0 0 0 0 0 0 3
84 81 87 97 90 94 90 90 94 87 87 81 58 48 48 48 52 52 45 45 39 32 26 13 16 10 6 6 6 0 0 0 0 0 0 0 0 0 0 0 0 0 0
87 87 90 94 94 94 90 94 90 90 90 71 61 55 48 45 45 48 48 45 39 29 26 16 13 10 3 3 3 0 0 0 0 0 0 0 0 0 0 0 0 0 0
87 87 87 90 90 94 94 94 94 90 84 77 68 45 55 48 39 45 42 52 42 39 26 16 13 10 3 3 3 3 0 0 0 0 0 0 0 0 0 0 0 0 0
84 90 84 81 81 87 97 94 90 87 84 81 71 55 48 42 29 26 29 35 39 32 39 32 16 13 6 3 3 3 3 3 0 0 0 0 0 0 0 0 0 0 0
84 81 81 81 77 81 81 87 81 90 84 81 71 52 45 42 29 26 29 32 32 32 35 35 23 13 10 6 3 3 3 3 3 3 0 0 0 0 0 0 0 0 0
77 77 81 81 84 81 81 84 84 77 77 77 68 58 45 35 26 26 29 19 26 26 29 42 23 16 10 6 6 6 3 3 3 3 3 0 0 0 0 0 0 0 0
68 74 74 71 68 74 74 77 77 81 74 71 65 52 42 35 35 23 23 23 19 23 19 26 19 19 16 16 6 6 3 3 3 3 3 3 0 0 0 0 0 0 0
58 52 55 55 55 71 71 71 74 71 71 65 55 48 35 35 32 29 29 26 16 19 19 13 13 10 10 10 6 6 3 3 3 3 3 3 3 0 0 0 0 0 0
65 48 52 58 61 68 71 68 65 65 61 61 55 55 42 39 32 19 19 19 19 16 16 10 6 13 10 6 6 6 3 3 3 3 3 3 3 3 0 0 0 0 0
48 55 58 61 65 61 68 65 61 58 61 55 55 52 48 35 29 26 23 19 16 16 16 16 13 10 6 6 3 6 6 3 0 0 0 0 3 0 0 0 0 0 0
52 55 58 61 61 58 65 68 61 61 61 55 58 52 48 39 29 23 23 23 16 13 16 13 13 6 3 6 3 3 3 3 3 3 0 0 0 0 0 0 0 0 0
45 42 45 52 45 48 45 58 55 52 52 52 48 42 35 32 29 29 26 13 10 6 6 6 6 10 10 3 3 3 3 3 3 3 0 0 0 0 0 0 0 0 0
42 42 42 42 39 39 45 48 39 39 42 42 32 32 29 26 23 16 16 13 10 6 3 3 3 3 3 3 0 0 3 3 3 3 0 0 0 0 0 0 0 0 0
39 39 35 35 35 35 35 35 35 32 32 29 29 29 26 19 19 16 13 13 10 3 3 3 3 3 3 3 3 3 3 3 0 0 0 0 0 0 0 0 0 0 0
42 39 39 32 32 32 35 32 32 32 29 29 26 19 16 13 16 19 16 10 6 3 3 3 3 3 3 3 3 0 3 0 0 0 0 0 0 0 0 0 0 0 0
52 55 42 32 32 29 29 29 29 29 23 26 19 23 19 16 19 19 13 10 10 3 3 3 3 3 3 3 0 0 0 0 0 0 0 0 0 0 0 0 0 0 0
48 35 32 29 29 29 29 29 23 29 26 23 23 19 19 19 16 16 10 10 10 3 3 3 3 3 3 3 0 0 0 0 0 0 0 0 0 0 0 0 0 0 0
19 19 23 26 26 26 26 23 19 16 19 19 19 16 13 16 10 6 6 6 6 3 3 3 3 0 0 0 0 0 0 0 0 0 0 0 0 0 0 0 0 0 0
16 10 16 13 16 16 19 23 13 13 13 16 13 10 6 6 3 3 3 6 6 0 3 0 0 0 0 0 0 0 0 0 0 0 0 0 0 0 0 0 0 0 0
13 10 16 16 16 13 13 16 13 13 13 6 6 0 0 0 0 0 0 0 0 0 0 0 0 0 0 0 0 0 0 0 0 0 0 0 0 0 0 0 0 0 0
13 16 16 13 6 10 10 6 10 6 6 3 0 0 0 0 0 0 0 0 0 0 0 0 0 0 0 0 0 0 0 0 0 0 0 0 0 0 0 0 0 0 0
6 13 13 6 3 3 3 3 0 3 0 0 0 0 0 0 0 0 0 0 0 0 0 0 0 0 0 0 0 0 0 0 0 0 0 0 0 0 0 0 0 0 0
10 3 0 0 3 0 3 0 0 0 0 0 0 0 0 0 0 0 0 0 0 0 0 0 0 0 0 0 0 0 0 0 0 0 0 0 0 0 0 0 0 0 0
3 3 3 0 0 0 3 0 0 0 0 0 0 0 0 0 0 0 0 0 0 0 0 0 0 0 0 0 0 0 0 0 0 0 0 0 0 0 0 0 0 0 0
3 3 3 3 3 3 0 0 0 0 0 0 0 0 0 0 0 0 0 0 0 0 0 0 0 0 0 0 0 0 0 0 0 0 0 0 0 0 0 0 0 0 0

GEFSMW_con_cape1000_180.txt.gz
Probability
35 42 55 52 55 35 39 48 45 32 29 32 35 39 42 32 23 26 26 23 23 19 19 16 3 3 0 3 0 0 0 0 0 0 0 0 0 0 0 0 3 3 6
35 45 42 58 58 45 42 39 42 39 35 42 29 26 23 23 26 26 26 23 23 19 19 13 10 10 3 3 3 3 0 0 0 0 0 0 0 0 0 0 0 0 0
42 45 48 52 61 55 48 55 45 45 45 35 26 23 16 23 29 23 26 26 19 19 19 16 10 10 3 3 3 3 0 0 0 0 0 0 0 0 0 0 0 0 0
48 55 55 58 58 68 55 52 48 45 45 42 29 32 29 32 35 32 29 23 23 16 16 16 10 10 6 3 3 3 3 3 0 0 0 0 0 0 0 0 0 0 0
45 48 55 65 65 65 65 55 48 52 45 39 35 29 32 26 16 16 23 19 16 13 13 19 10 10 6 3 3 3 3 0 0 0 0 0 0 0 0 0 0 0 0
45 48 58 68 71 74 77 61 55 52 35 35 35 35 32 23 16 19 19 23 13 13 13 16 10 6 10 6 3 3 3 3 3 3 0 0 0 0 0 0 0 0 0
42 35 52 58 65 61 71 71 61 45 45 32 29 26 26 13 16 16 10 16 16 16 13 6 6 6 0 0 3 0 3 3 3 3 3 3 0 0 0 0 0 0 0
29 35 55 61 61 61 58 68 58 55 52 45 39 35 19 19 23 10 13 13 13 13 10 10 6 6 3 3 3 3 3 3 0 3 3 3 3 3 0 0 0 0 0
32 39 48 52 48 48 48 52 55 58 52 48 39 32 26 23 23 10 10 10 6 6 3 3 6 6 6 6 3 0 0 0 0 0 0 0 3 3 3 0 0 0 0
32 39 48 48 45 45 45 45 55 55 55 48 35 32 32 29 26 16 6 6 6 6 3 3 3 3 3 3 3 3 0 0 0 0 0 0 0 0 3 3 0 0 0
26 32 42 42 42 45 42 48 42 45 42 42 42 39 29 32 26 19 13 10 10 10 13 6 3 3 3 3 3 3 3 3 0 0 0 0 0 0 0 0 0 0 0
29 39 45 42 45 42 42 42 45 45 42 42 42 39 32 23 19 19 19 13 10 10 6 10 10 10 10 3 3 3 3 0 0 0 0 0 0 0 0 0 0 0 0
42 42 39 39 42 42 42 45 45 45 45 35 35 32 26 19 16 16 16 10 10 3 3 3 3 3 6 6 6 3 3 3 3 3 0 0 0 0 0 0 0 0 0
35 35 39 39 39 42 45 45 45 45 42 39 32 26 26 23 16 13 10 10 10 10 6 3 3 3 3 3 3 3 3 3 0 3 0 0 0 0 0 0 0 0 0
35 35 39 35 32 35 35 35 35 35 32 32 29 26 23 19 13 13 13 10 10 6 6 6 3 3 3 3 3 3 3 3 3 0 0 0 0 0 0 0 0 0 0
32 32 35 32 35 32 32 32 32 32 29 29 29 19 16 10 13 10 10 10 6 6 6 6 6 3 3 3 0 0 0 0 0 0 0 0 0 0 0 0 0 0 0
29 32 29 29 29 29 29 32 29 23 23 19 23 19 16 16 10 10 10 10 6 6 6 6 6 6 0 0 0 0 0 0 0 0 0 0 0 0 0 0 0 0 0
26 32 29 23 19 19 19 16 19 23 19 19 19 13 13 13 13 10 10 6 6 6 6 6 3 3 0 0 0 0 0 0 0 0 0 0 0 0 0 0 0 0 0
23 19 16 16 16 16 16 16 16 16 16 19 19 13 13 13 13 13 6 3 3 3 3 3 3 3 3 0 0 0 0 0 0 0 0 0 0 0 0 0 0 0 0
13 10 13 13 13 13 13 16 6 6 10 13 10 10 10 10 10 6 3 3 3 3 3 3 3 3 3 0 0 0 0 0 0 0 0 0 0 0 0 0 0 0 0
10 10 6 10 6 6 10 6 6 6 6 3 6 10 10 6 6 0 0 0 3 3 3 3 3 3 3 0 0 0 0 0 0 0 0 0 0 0 0 0 0 0 0
6 6 6 3 3 3 3 6 6 6 6 3 3 3 0 0 0 0 0 0 0 0 0 0 0 3 0 0 0 0 0 0 0 0 0 0 0 0 0 0 0 0 0
3 3 3 0 0 3 3 3 3 6 6 3 3 0 0 0 0 0 0 0 0 0 0 0 0 0 0 0 0 0 0 0 0 0 0 0 0 0 0 0 0 0 0
3 3 0 0 0 0 0 3 0 3 3 0 0 0 0 0 0 0 0 0 0 0 0 0 0 0 0 0 0 0 0 0 0 0 0 0 0 0 0 0 0 0 0
0 0 0 0 0 0 0 0 0 0 0 0 0 0 0 0 0 0 0 0 0 0 0 0 0 0 0 0 0 0 0 0 0 0 0 0 0 0 0 0 0 0 0
0 0 0 0 0 0 0 0 0 0 0 0 0 0 0 0 0 0 0 0 0 0 0 0 0 0 0 0 0 0 0 0 0 0 0 0 0 0 0 0 0 0 0

GEFSMW_con_cape1000_186.txt.gz
Probability
94 97 94 94 94 97 100 100 100 100 100 100 100 100 94 94 94 90 87 87 90 84 90 71 90 90 61 68 55 61 65 52 61 45 42 32 19 35 42 39 29 19 23
100 100 100 97 97 94 97 94 94 100 100 100 100 100 94 90 90 87 90 90 94 90 68 87 87 94 97 81 68 77 68 45 52 42 39 35 26 35 13 32 32 23 19
97 100 97 97 97 97 94 90 97 94 100 100 100 97 90 87 84 84 90 90 87 84 81 81 84 94 84 74 77 74 71 55 48 45 32 29 32 23 13 16 26 39 32
87 100 100 97 97 97 97 94 97 97 100 97 97 94 90 87 87 90 90 87 87 84 81 84 84 94 77 84 71 58 68 65 48 52 58 48 29 39 10 10 10 16 35
90 90 94 97 97 97 97 97 97 97 97 97 97 94 94 90 94 94 100 87 84 84 84 84 87 87 87 81 81 68 65 58 58 48 52 48 52 32 23 29 29 26 16
81 87 97 97 97 97 97 94 100 100 97 97 97 97 97 100 97 90 90 84 81 87 74 77 84 94 90 87 84 77 61 58 65 65 52 45 45 45 35 29 29 32 10
77 84 94 97 97 97 94 94 97 100 97 97 97 100 100 97 97 90 84 77 81 81 84 74 84 84 87 84 81 84 65 55 65 65 55 39 32 35 26 29 29 16 13
77 84 87 90 94 90 90 90 100 100 97 97 94 94 94 87 87 81 74 71 68 74 77 77 84 74 71 65 81 65 68 68 68 42 58 65 39 39 35 48 32 19 23
68 77 77 87 81 87 90 90 87 87 90 94 90 90 90 84 81 81 77 71 77 71 77 77 74 68 68 74 81 71 74 77 68 58 55 55 52 48 42 39 42 32 16
68 74 74 84 84 87 94 87 84 87 90 81 81 74 81 81 81 81 74 71 71 71 68 65 61 61 65 68 77 68 68 71 58 65 55 52 39 39 45 29 32 39 29
65 61 74 81 87 84 87 87 84 87 81 81 74 74 74 77 77 77 68 65 71 71 71 68 61 58 58 58 71 48 55 58 52 29 29 29 32 35 39 32 32 29 19
68 74 74 81 81 81 87 87 77 71 74 71 71 68 71 74 74 71 65 68 68 71 65 61 65 58 52 48 45 42 32 35 42 29 23 29 26 35 32 39 32 29 35
81 84 81 81 74 74 77 68 68 65 68 71 71 71 68 74 71 58 55 55 55 48 45 55 55 55 48 45 45 42 29 23 29 23 23 29 29 32 29 29 32 26 16
87 87 87 84 77 81 71 71 71 65 68 68 68 68 61 61 55 52 58 55 52 45 48 48 48 45 42 39 32 29 29 26 26 26 23 23 16 19 23 13 23 26 23
84 81 87 87 84 77 77 71 68 71 65 65 65 58 65 61 52 52 52 48 48 42 48 45 39 39 32 23 32 23 19 23 23 23 16 16 10 10 10 6 16 16 19
81 94 90 84 81 81 71 68 68 68 68 68 58 52 52 52 45 48 48 45 39 42 39 39 35 32 19 3 0 10 23 23 16 19 19 13 10 0 0 0 0 0 3
77 81 81 77 81 77 71 61 61 65 68 58 48 45 45 42 39 35 42 42 39 35 35 35 32 32 10 3 0 0 6 16 13 13 10 6 6 0 6 0 0 0 0
84 77 74 74 77 74 61 58 58 55 48 42 39 39 42 42 42 39 39 35 35 35 29 29 26 16 10 3 0 0 0 6 6 10 6 10 6 3 6 6 0 0 0
81 84 68 68 61 55 52 52 45 42 35 35 35 35 35 39 32 32 29 32 32 29 26 19 16 13 10 3 0 0 10 3 6 6 3 3 6 3 0 0 3 0 0
74 71 68 58 58 52 48 48 45 32 26 26 26 29 29 32 29 26 26 23 19 19 16 13 10 10 6 3 0 0 3 0 0 6 3 0 0 0 0 0 3 3 0
68 68 55 55 55 52 48 42 35 26 23 23 19 19 23 26 29 26 23 19 13 13 13 6 6 6 6 3 0 0 3 3 3 3 0 0 0 0 0 0 0 0 0
58 58 45 48 48 48 45 39 23 26 23 19 19 19 19 19 16 13 13 13 13 10 10 6 6 3 3 3 3 0 0 0 3 3 3 3 0 0 0 0 0 0 0
48 52 39 35 39 32 29 23 19 19 19 19 19 16 16 19 13 13 10 6 6 3 3 3 6 6 3 0 0 0 0 0 0 6 0 0 0 0 0 0 0 0 0
42 32 29 19 23 19 19 16 16 16 16 16 16 19 19 10 10 13 3 0 0 0 0 0 0 0 0 0 3 3 3 0 0 0 0 0 0 0 0 0 0 0 0
32 29 23 19 16 10 6 6 10 13 13 13 13 10 13 10 13 3 0 0 3 0 0 3 3 3 3 0 0 0 0 0 0 0 3 3 3 0 0 0 0 0 0
29 23 16 10 10 6 6 6 6 10 13 13 10 6 6 10 3 3 0 0 0 0 0 0 0 0 0 0 0 0 0 0 0 0 0 0 0 0 0 0 0 0 0